Marfa, TX

6:58 PM CDT on May 20, 2018 (GMT -0500)
Marfa Municipal

Weather History for KMRF - March, 2012

Change the Weather History Date:

Saturday, March 10, 2012

  Actual Average Record
Temperature  
Mean Temperature 44 °F -  
Max Temperature 59 °F 64 °F 79 °F (2017)
Min Temperature 30 °F 33 °F 21 °F (1998)
Degree Days  
Heating Degree Days 20    
Moisture  
Dew Point 30 °F    
Average Humidity 70    
Maximum Humidity 87    
Minimum Humidity 38    
Precipitation  
Precipitation 0.00 in - - ()
Sea Level Pressure  
Sea Level Pressure 30.11 in    
Wind  
Wind Speed 10 mph (ENE)    
Max Wind Speed 20 mph    
Max Gust Speed 18 mph    
Visibility 10 miles    
Events      
Averages and records for this station are not official NWS values.
T = Trace of Precipitation, MM = Missing Value Source: NWS Daily Summary

Daily Weather History Graph

Daily Weather History Graph

Search for Another Location

Airport or City:

Astronomy

Mar. 10, 2012 Rise Set
Actual Time 7:11 AM CST 7:01 PM CST
Civil Twilight 6:47 AM CST 7:25 PM CST
Nautical Twilight 6:19 AM CST 7:53 PM CST
Astronomical Twilight 5:51 AM CST 8:21 PM CST
Moon 9:57 PM CST (3/10) 8:24 AM CST (3/10)
Length of Visible Light 12h 38m
Length of Day
11h 50m
Waning Gibbous, 92% of the Moon is Illuminated
Mar 10
Waning Gibbous
Mar 14
Last Quarter
Mar 22
New
Mar 30
First Quarter
Apr 6
Full

Hourly Weather History & Observations

Time (CST) Temp. Windchill Dew Point Humidity Pressure Visibility Wind Dir Wind Speed Gust Speed Precip Events Conditions
12:15 AM 30.2 °F 20.8 °F 26.6 °F 86% 30.25 in 10.0 mi ENE 11.5 mph - N/A   Overcast
12:35 AM 30.2 °F 21.3 °F 26.6 °F 86% 30.25 in 10.0 mi NE 10.4 mph - N/A   Overcast
12:55 AM 30.2 °F 21.3 °F 26.6 °F 86% 30.24 in 10.0 mi NE 10.4 mph - N/A   Overcast
1:15 AM 30.2 °F 20.8 °F 26.6 °F 86% 30.23 in 10.0 mi ENE 11.5 mph - N/A   Overcast
1:35 AM 30.2 °F 20.8 °F 26.6 °F 86% 30.22 in 10.0 mi NE 11.5 mph - N/A   Overcast
1:55 AM 30.2 °F 21.3 °F 26.6 °F 86% 30.21 in 10.0 mi ENE 10.4 mph - N/A   Overcast
2:15 AM 30.2 °F 21.3 °F 26.6 °F 86% 30.21 in 10.0 mi NE 10.4 mph - N/A   Overcast
2:35 AM 30.2 °F 21.3 °F 26.6 °F 86% 30.20 in 10.0 mi NE 10.4 mph - N/A   Overcast
2:55 AM 30.2 °F 21.9 °F 26.6 °F 86% 30.19 in 10.0 mi NE 9.2 mph - N/A   Overcast
3:15 AM 30.2 °F 21.9 °F 26.6 °F 86% 30.18 in 10.0 mi ENE 9.2 mph - N/A   Overcast
3:35 AM 30.2 °F 21.3 °F 26.6 °F 86% 30.17 in 10.0 mi NE 10.4 mph - N/A   Overcast
3:55 AM 30.2 °F 21.9 °F 26.6 °F 86% 30.16 in 10.0 mi NE 9.2 mph - N/A   Overcast
4:15 AM 30.2 °F 22.6 °F 26.6 °F 86% 30.16 in 10.0 mi ENE 8.1 mph - N/A   Overcast
4:35 AM 30.2 °F 21.9 °F 26.6 °F 86% 30.16 in 10.0 mi ENE 9.2 mph - N/A   Overcast
4:55 AM 30.2 °F 21.3 °F 26.6 °F 86% 30.15 in 10.0 mi NE 10.4 mph - N/A   Overcast
5:15 AM 30.2 °F 23.4 °F 26.6 °F 86% 30.15 in 10.0 mi NE 6.9 mph - N/A   Overcast
5:35 AM 32.0 °F 24.2 °F 26.6 °F 80% 30.15 in 10.0 mi ENE 9.2 mph - N/A   Overcast
5:55 AM 30.2 °F 21.9 °F 26.6 °F 86% 30.15 in 10.0 mi NE 9.2 mph - N/A   Overcast
6:15 AM 30.2 °F 21.3 °F 26.6 °F 86% 30.15 in 10.0 mi ENE 10.4 mph - N/A   Overcast
6:35 AM 30.2 °F 21.9 °F 26.6 °F 86% 30.15 in 10.0 mi NE 9.2 mph - N/A   Overcast
6:55 AM 32.0 °F 24.2 °F 26.6 °F 80% 30.15 in 10.0 mi NE 9.2 mph - N/A   Overcast
7:15 AM 32.0 °F 26.4 °F 28.4 °F 87% 30.15 in 10.0 mi NE 5.8 mph - N/A   Overcast
7:35 AM 32.0 °F 25.6 °F 28.4 °F 87% 30.15 in 10.0 mi NE 6.9 mph - N/A   Overcast
7:55 AM 32.0 °F 25.6 °F 26.6 °F 80% 30.15 in 10.0 mi NE 6.9 mph - N/A   Overcast
8:15 AM 33.8 °F 27.0 °F 28.4 °F 81% 30.15 in 10.0 mi NNE 8.1 mph - N/A   Overcast
8:35 AM 33.8 °F 24.3 °F 28.4 °F 81% 30.13 in 10.0 mi NNE 13.8 mph - N/A   Overcast
8:55 AM 35.6 °F 28.0 °F 28.4 °F 75% 30.14 in 10.0 mi NNE 10.4 mph - N/A   Overcast
9:15 AM 35.6 °F 27.1 °F 28.4 °F 75% 30.14 in 10.0 mi ENE 12.7 mph - N/A   Overcast
9:35 AM 35.6 °F 25.5 °F 28.4 °F 75% 30.12 in 10.0 mi ENE 17.3 mph - N/A   Overcast
9:55 AM 35.6 °F 25.9 °F 30.2 °F 81% 30.13 in 10.0 mi ENE 16.1 mph - N/A   Overcast
10:35 AM 37.4 °F 31.4 °F 30.2 °F 75% 30.14 in 10.0 mi ENE 8.1 mph - N/A   Overcast
10:55 AM 37.4 °F 32.1 °F 32.0 °F 81% 30.13 in 10.0 mi NE 6.9 mph - N/A   Overcast
11:15 AM 39.2 °F 35.9 °F 33.8 °F 81% 30.13 in 10.0 mi SSE 4.6 mph - N/A   Overcast
11:35 AM 41.0 °F 35.8 °F 32.0 °F 70% 30.11 in 10.0 mi ENE 8.1 mph - N/A   Overcast
11:55 AM 42.8 °F 38.6 °F 33.8 °F 70% 30.10 in 10.0 mi East 6.9 mph - N/A   Overcast
12:15 PM 44.6 °F 41.4 °F 33.8 °F 66% 30.09 in 10.0 mi East 5.8 mph - N/A   Overcast
12:35 PM 46.4 °F 45.2 °F 33.8 °F 62% 30.08 in 10.0 mi SSE 3.5 mph - N/A   Mostly Cloudy
12:55 PM 48.2 °F - 35.6 °F 62% 30.07 in 10.0 mi ESE 6.9 mph - N/A   Mostly Cloudy
1:15 PM 51.8 °F - 35.6 °F 54% 30.05 in 10.0 mi SE 8.1 mph - N/A   Overcast
1:35 PM 53.6 °F - 35.6 °F 51% 30.04 in 10.0 mi South 9.2 mph - N/A   Mostly Cloudy
1:55 PM 55.4 °F - 35.6 °F 47% 30.02 in 10.0 mi South 11.5 mph - N/A   Partly Cloudy
2:15 PM 55.4 °F - 35.6 °F 47% 30.01 in 10.0 mi South 10.4 mph 18.4 mph N/A   Clear
2:35 PM 55.4 °F - 35.6 °F 47% 30.00 in 10.0 mi SSE 9.2 mph - N/A   Clear
2:55 PM 55.4 °F - 35.6 °F 47% 29.99 in 10.0 mi SSE 10.4 mph - N/A   Clear
3:15 PM 57.2 °F - 33.8 °F 41% 29.98 in 10.0 mi SSE 10.4 mph 18.4 mph N/A   Clear
3:35 PM 57.2 °F - 33.8 °F 41% 29.97 in 10.0 mi Calm Calm - N/A   Clear
3:55 PM 59.0 °F - 33.8 °F 39% 29.96 in 10.0 mi South 10.4 mph 17.3 mph N/A   Clear
4:15 PM 57.2 °F - 33.8 °F 41% 29.95 in 10.0 mi ESE 12.7 mph - N/A   Clear
4:35 PM 57.2 °F - 32.0 °F 38% 29.95 in 10.0 mi SE 8.1 mph - N/A   Clear
4:55 PM 55.4 °F - 32.0 °F 41% 29.96 in 10.0 mi NE 13.8 mph - N/A   Partly Cloudy
5:15 PM 57.2 °F - 32.0 °F 38% 29.96 in 10.0 mi NE 15.0 mph 18.4 mph N/A   Mostly Cloudy
5:35 PM 53.6 °F - 30.2 °F 41% 29.96 in 10.0 mi NE 19.6 mph - N/A   Overcast
5:55 PM 48.2 °F - 30.2 °F 50% 29.97 in 10.0 mi NE 19.6 mph - N/A   Scattered Clouds
6:15 PM 48.2 °F - 30.2 °F 50% 29.98 in 10.0 mi NE 13.8 mph - N/A   Clear
6:35 PM 46.4 °F 40.4 °F 30.2 °F 53% 29.99 in 10.0 mi NE 13.8 mph 20.7 mph N/A   Clear
6:55 PM 44.6 °F 38.1 °F 30.2 °F 57% 29.99 in 10.0 mi NE 13.8 mph 19.6 mph N/A   Clear
7:15 PM 42.8 °F 35.8 °F 30.2 °F 61% 30.00 in 10.0 mi NE 13.8 mph 19.6 mph N/A   Clear
7:35 PM 41.0 °F 33.9 °F 30.2 °F 65% 30.01 in 10.0 mi NE 12.7 mph 19.6 mph N/A   Clear
7:55 PM 39.2 °F 31.6 °F 30.2 °F 70% 30.02 in 10.0 mi NE 12.7 mph - N/A   Clear
8:15 PM 37.4 °F 30.8 °F 30.2 °F 75% 30.03 in 10.0 mi NE 9.2 mph - N/A   Clear
8:35 PM 37.4 °F 31.4 °F 30.2 °F 75% 30.05 in 10.0 mi NNE 8.1 mph - N/A   Clear
8:55 PM 37.4 °F 34.9 °F 30.2 °F 75% 30.06 in 10.0 mi North 3.5 mph - N/A   Clear
9:15 PM 35.6 °F 28.6 °F 30.2 °F 81% 30.07 in 10.0 mi North 9.2 mph - N/A   Clear
9:35 PM 35.6 °F 32.8 °F 28.4 °F 75% 30.08 in 10.0 mi NNE 3.5 mph - N/A   Clear
9:55 PM 33.8 °F 30.8 °F 28.4 °F 81% 30.09 in 10.0 mi North 3.5 mph - N/A   Clear
10:15 PM 33.8 °F 28.6 °F 28.4 °F 81% 30.10 in 10.0 mi NNW 5.8 mph - N/A   Clear
10:35 PM 33.8 °F 28.6 °F 28.4 °F 81% 30.11 in 10.0 mi North 5.8 mph - N/A   Clear
10:55 PM 33.8 °F 28.6 °F 28.4 °F 81% 30.10 in 10.0 mi NNW 5.8 mph - N/A   Clear
11:15 PM 32.0 °F 27.5 °F 26.6 °F 80% 30.10 in 10.0 mi North 4.6 mph - N/A   Clear
11:35 PM 30.2 °F 22.6 °F 26.6 °F 86% 30.09 in 10.0 mi NNW 8.1 mph - N/A   Clear
11:55 PM 30.2 °F 24.3 °F 26.6 °F 86% 30.09 in 10.0 mi NW 5.8 mph - N/A   Clear